Wind_Speed
29 34 37 33 27 24 22 24 26 23 21 23 24 24 23 23 24 25 26 26 27 28 29 30 29 26 26 27 26 24 23 22 21 19 17 16 14 11 11 13 13 14 15 15 14 13 11 10 8 8 8 8 9 9 9 7 5 4 3 2 1 2 3 3 3 3 4 4 5 8 8 7 9 11 13 14 15 15 15 15 15 15 15 14 13
35 38 39 33 27 25 23 26 29 28 25 25 25 24 23 24 26 27 27 28 29 29 30 31 31 29 29 30 29 27 26 25 24 22 21 19 17 14 13 14 15 16 16 15 15 15 15 13 12 11 10 10 10 10 10 9 6 4 3 3 4 5 5 4 4 5 6 7 8 10 12 12 12 13 15 16 16 17 17 17 17 17 17 17 16
39 41 40 35 29 27 25 27 32 31 28 27 27 25 25 26 27 27 28 29 29 30 30 30 31 31 32 32 31 30 29 28 27 26 25 23 21 18 16 16 16 18 18 18 17 17 17 17 16 14 14 13 13 13 12 12 10 8 8 8 8 9 9 9 9 9 9 10 11 12 14 15 16 17 17 15 15 18 20 19 20 20 20 20 19
41 42 43 38 32 29 26 28 33 33 31 30 30 29 28 31 30 29 30 30 29 30 31 30 30 30 31 33 33 32 31 31 30 29 27 26 24 22 20 19 19 20 20 20 20 18 18 19 19 18 17 17 16 16 16 16 15 13 12 12 12 13 13 13 14 14 13 13 14 14 16 17 17 18 17 16 17 20 21 21 22 22 21 22 22
44 45 46 41 35 31 27 27 31 34 33 32 32 31 31 33 33 31 32 32 30 30 30 30 31 31 31 32 33 33 32 32 31 30 29 28 27 25 23 22 22 22 23 23 22 21 19 19 20 20 20 19 19 18 18 18 18 17 16 16 16 17 17 17 17 17 17 17 18 18 19 19 19 19 19 20 21 22 21 22 23 23 22 23 23
48 49 49 44 38 33 29 28 31 34 34 34 35 34 34 35 34 33 35 35 33 32 31 30 32 33 32 32 32 33 32 32 31 30 30 29 29 28 26 25 25 25 25 25 25 24 22 20 20 21 21 21 20 19 19 20 20 20 19 19 19 20 20 20 20 20 20 20 20 21 21 22 22 22 23 24 25 24 24 23 23 23 23 23 23
51 52 52 48 42 37 31 30 32 35 35 35 36 37 37 37 36 35 36 37 36 34 33 33 33 33 33 31 31 32 32 31 31 31 30 30 30 29 29 28 28 27 28 28 27 26 25 23 22 23 23 22 21 21 20 21 21 21 21 21 22 22 22 22 22 22 23 22 23 24 24 25 25 25 26 26 27 27 26 25 23 23 23 23 23
54 54 54 52 48 42 35 32 35 37 36 36 36 37 38 38 38 37 37 38 38 37 36 35 34 34 33 31 30 32 33 33 32 31 31 31 31 31 30 30 30 29 29 29 29 28 28 26 25 25 25 25 24 23 23 23 23 23 23 23 23 24 24 24 24 24 24 23 23 24 25 26 27 26 26 27 28 29 28 26 25 24 24 25 25
56 56 56 55 52 47 40 37 38 39 38 37 37 37 38 39 39 39 39 39 40 39 38 37 36 35 35 33 33 35 35 35 34 33 32 32 32 32 32 31 30 30 29 29 28 28 28 28 28 28 28 28 27 26 26 26 25 25 25 25 25 26 26 27 26 27 27 26 25 25 25 27 28 25 23 26 29 31 30 29 28 27 27 27 28
57 57 58 58 56 52 47 43 42 43 42 41 39 39 40 40 40 40 41 42 42 41 40 40 40 39 37 36 37 37 37 37 36 34 33 33 33 33 32 32 31 30 30 29 28 27 27 28 28 29 29 29 29 29 29 28 28 28 28 28 28 28 28 29 29 30 29 29 29 29 29 30 29 27 24 25 28 32 33 32 31 30 30 30 31
57 57 58 60 59 57 53 49 46 46 46 45 44 43 42 43 43 42 43 44 44 42 40 38 39 40 41 39 39 40 40 38 36 34 34 34 34 33 33 33 32 31 31 30 29 28 27 28 28 29 30 30 31 31 31 31 31 31 31 31 31 31 31 32 32 33 33 32 32 32 32 32 31 30 29 28 29 33 33 32 32 33 32 33 33
58 58 59 61 61 60 58 55 52 50 50 50 49 47 45 45 46 45 45 46 46 44 42 39 37 40 42 41 40 43 42 39 37 37 37 36 36 36 35 35 34 34 33 32 30 30 30 30 31 31 32 32 32 33 33 33 33 34 34 34 34 34 34 34 35 36 36 35 35 34 34 34 33 33 32 32 33 33 32 32 32 33 34 36 36
59 60 61 62 63 63 61 60 58 55 54 54 53 51 47 45 47 49 48 48 47 47 46 44 43 43 44 43 42 44 43 41 39 40 40 40 39 38 37 36 37 36 35 34 34 34 34 35 35 34 34 34 35 36 36 35 35 36 36 37 38 38 38 38 38 38 38 37 37 36 35 35 35 35 35 36 36 36 36 37 37 37 37 37 38
62 62 62 63 65 65 65 64 63 60 58 57 56 54 50 46 47 50 51 51 50 50 49 49 48 47 47 46 45 44 43 42 43 43 42 42 41 39 38 38 39 39 38 38 38 38 38 38 38 38 38 38 39 39 38 38 38 38 38 39 40 40 41 41 40 38 37 37 38 38 37 37 37 37 37 38 39 40 42 43 42 41 40 39 40
68 66 65 64 65 67 68 68 67 65 63 62 60 58 54 50 48 49 51 53 53 53 53 53 52 52 51 49 48 45 43 43 45 46 45 44 43 42 41 41 42 42 42 42 42 41 41 40 40 41 41 42 41 41 40 40 40 40 40 41 41 43 43 42 40 39 38 39 38 38 38 38 38 39 40 40 40 42 45 45 45 44 43 42 42
71 70 69 67 67 68 70 71 71 70 68 67 65 62 60 56 53 51 51 52 54 55 56 56 55 55 53 51 51 49 46 45 46 47 47 46 46 45 44 44 44 45 45 45 45 44 43 43 43 43 44 43 43 43 42 42 41 40 41 43 44 45 45 42 39 39 41 41 41 41 41 41 39 39 42 43 41 42 43 44 46 47 46 45 45
69 70 70 69 69 70 71 73 74 74 73 72 70 68 65 62 59 56 53 52 53 55 57 57 57 57 56 54 54 53 51 50 49 49 49 47 46 47 47 47 46 45 45 46 45 44 43 43 43 44 44 44 44 44 43 42 42 42 43 45 46 46 46 44 41 41 42 43 44 44 45 44 41 40 43 45 44 42 43 44 46 48 49 48 48
67 68 69 69 70 71 72 74 75 76 77 77 76 73 71 68 65 62 59 55 54 54 56 57 57 57 57 56 56 55 55 54 53 52 52 50 47 47 48 49 48 47 46 46 45 43 42 41 42 43 44 44 45 45 44 43 44 45 46 47 47 48 48 45 43 43 43 44 46 47 47 45 44 45 48 50 49 47 46 46 48 50 50 50 50
64 67 68 69 69 70 72 74 76 77 78 79 79 79 77 74 71 68 65 62 58 56 56 57 57 57 57 57 56 56 56 56 54 53 53 52 50 50 50 50 49 48 47 47 46 45 43 42 42 44 46 45 45 45 45 45 45 46 48 49 49 49 49 47 45 45 46 47 49 49 48 47 47 47 48 49 50 49 49 49 51 52 52 53 53
60 63 66 68 69 70 71 72 74 77 79 80 81 81 81 79 77 74 71 68 65 62 59 58 58 58 58 58 57 57 58 58 57 55 54 53 51 50 51 51 51 51 51 50 48 47 46 44 45 47 47 46 46 46 46 46 47 48 49 50 50 50 49 49 48 48 48 49 49 48 48 48 49 48 48 49 50 51 53 54 55 56 57 56 56
57 60 62 65 68 69 70 71 72 75 77 79 81 82 83 83 81 79 77 74 71 68 65 63 61 61 61 60 59 59 59 59 59 58 58 57 55 53 52 53 52 53 54 53 50 49 49 48 47 47 47 46 45 46 45 46 47 49 49 50 50 51 52 52 52 52 52 51 52 52 52 53 53 52 52 53 52 53 54 54 55 56 56 55 55
56 57 59 62 65 67 69 71 72 73 75 77 80 81 82 83 84 83 82 79 77 74 72 69 66 65 64 63 62 62 61 61 61 61 61 61 60 58 57 57 57 56 56 56 53 52 52 52 51 50 50 48 47 46 46 46 49 50 50 50 51 52 53 54 54 53 52 52 53 55 55 56 56 55 56 57 57 57 57 55 54 54 56 57 59
54 57 58 60 62 64 67 69 71 72 73 75 77 79 81 83 84 84 85 84 82 80 77 74 72 70 68 66 66 65 65 65 64 63 62 63 63 63 63 63 63 62 61 61 59 58 58 58 57 56 56 55 55 54 52 52 53 54 54 55 56 56 57 58 58 57 56 57 59 60 61 61 62 63 64 65 64 64 65 64 62 64 66 68 69
49 53 57 59 60 62 64 66 69 71 72 74 75 77 79 81 83 84 85 85 85 84 82 79 77 74 72 70 70 69 69 69 68 66 65 64 64 65 65 66 67 67 67 66 64 64 64 64 64 63 63 62 62 61 61 60 59 59 60 60 61 62 62 64 65 64 64 65 66 67 68 69 70 70 71 71 71 71 72 72 72 73 75 76 76
43 47 52 56 59 61 63 65 67 68 70 72 73 74 76 77 79 82 83 85 86 86 85 83 81 79 76 74 73 73 73 73 72 71 69 68 67 67 67 67 68 69 69 69 69 69 69 69 69 69 68 68 68 67 67 67 67 67 66 66 67 67 68 70 71 71 71 72 72 73 74 75 76 77 77 78 78 78 79 79 79 79 80 80 80
41 43 46 50 55 59 61 64 65 67 68 70 71 73 74 75 76 78 80 82 84 85 86 86 85 83 81 79 77 76 76 76 75 75 74 73 72 71 71 70 70 70 70 71 72 72 73 73 73 73 73 73 73 73 73 73 73 73 72 72 72 72 73 74 75 76 77 77 78 78 79 80 81 82 83 83 84 85 85 86 85 85 85 85 86
40 42 43 45 49 53 58 61 64 65 66 68 69 70 72 73 74 75 77 78 80 82 84 86 86 86 85 84 81 80 79 78 78 77 77 76 76 75 75 75 74 74 73 73 74 74 75 75 76 77 77 77 77 77 77 77 77 77 77 77 77 77 78 78 79 80 81 82 82 83 84 85 86 86 87 89 89 90 91 92 92 92 91 91 91
39 40 42 44 45 48 52 56 60 63 65 67 68 69 70 71 72 73 74 75 76 78 80 82 84 86 87 87 86 84 83 82 81 80 80 80 79 79 79 79 79 79 78 78 78 78 78 78 78 79 79 79 80 80 80 80 80 81 81 81 82 82 82 83 83 84 85 86 87 88 88 89 90 91 92 93 94 95 96 96 96 96 95 94 94
38 38 40 42 44 46 48 50 54 58 62 65 67 67 68 69 70 70 72 73 74 75 76 78 80 82 84 86 87 87 86 86 85 84 84 83 83 83 83 83 83 83 83 83 83 83 83 83 83 83 83 83 83 83 83 83 83 84 84 85 85 86 86 87 88 88 89 90 90 91 92 93 94 95 95 96 96 96 96 95 95 94 94 94 93
37 37 38 39 41 43 45 47 49 52 56 60 64 66 67 67 68 68 69 70 71 72 73 74 75 77 79 81 83 85 87 87 88 88 88 87 87 87 87 87 86 86 86 86 86 86 86 86 86 86 86 86 86 86 86 86 86 87 87 88 88 88 89 89 90 90 91 92 93 93 94 94 94 94 93 93 92 92 91 90 90 90 90 90 90
37 37 37 38 39 41 42 44 46 48 50 53 58 62 64 65 66 67 67 67 68 69 70 71 72 73 74 76 78 80 82 84 86 87 88 89 90 90 90 90 90 89 89 89 88 88 88 88 88 88 88 88 88 89 89 89 89 89 89 89 89 90 90 90 90 91 91 91 91 90 90 89 89 88 88 87 87 87 87 87 87 87 87 88 88
38 38 37 37 38 39 40 41 43 44 46 48 51 55 59 62 63 64 64 64 64 65 66 67 68 69 70 71 72 74 76 78 80 81 83 85 86 87 88 89 89 89 89 89 89 89 89 89 89 89 89 90 90 90 90 90 90 90 90 89 89 88 88 88 87 87 86 85 85 84 84 83 83 83 83 83 83 84 84 84 85 85 85 85 86
40 38 37 37 37 38 38 39 40 41 42 43 45 48 51 55 59 60 61 61 61 61 61 62 63 65 66 67 68 69 70 71 73 74 76 77 79 80 82 83 84 84 85 86 86 87 87 87 87 88 88 88 88 88 87 87 86 85 85 84 83 83 82 81 81 80 80 79 79 79 79 79 79 79 79 79 79 79 79 79 79 79 79 79 79
41 38 37 36 37 37 37 38 38 38 38 39 40 42 44 47 51 54 56 57 56 56 57 57 58 59 61 62 63 64 65 66 67 68 70 71 72 73 75 76 77 78 79 80 80 81 81 82 82 82 83 82 82 81 80 80 79 78 78 77 77 76 76 75 75 75 75 74 74 74 73 73 73 72 72 71 71 70 70 70 70 70 70 70 71
40 38 36 35 36 36 36 37 37 37 36 36 36 37 38 41 44 47 49 51 51 52 52 52 53 54 55 56 57 58 60 61 62 63 65 66 67 68 69 70 71 73 73 74 75 75 76 76 76 77 77 76 75 75 74 74 73 73 72 72 71 71 71 70 70 69 69 68 68 67 66 65 64 64 63 62 62 61 61 61 61 61 62 62 63
38 36 35 34 34 34 35 36 36 35 35 35 34 35 35 36 38 41 43 45 46 46 47 48 49 49 50 51 52 53 54 56 57 58 59 60 62 63 64 65 66 67 68 69 70 70 71 72 72 72 71 71 70 69 68 68 68 67 67 66 65 65 65 64 64 63 62 62 61 60 59 58 57 56 55 55 55 55 55 55 56 56 56 56 56
37 35 34 32 32 33 34 34 34 34 34 33 33 33 33 34 35 36 37 39 40 42 43 44 45 46 46 47 48 48 49 51 52 53 54 55 57 58 59 60 61 62 63 63 64 65 66 66 66 66 65 64 64 63 62 62 61 61 60 60 60 59 59 58 58 57 56 56 55 54 53 52 51 51 51 51 51 51 51 51 52 52 52 52 53
36 35 33 31 30 31 32 33 33 32 32 31 31 31 32 33 33 33 34 35 36 37 39 40 41 42 43 44 44 45 46 47 48 49 50 51 52 53 54 55 56 57 58 58 59 59 60 60 60 59 58 58 57 57 57 56 56 56 55 55 55 55 55 54 53 53 52 51 50 49 49 48 48 48 48 48 48 48 48 49 49 50 50 51 52
36 34 31 29 29 30 31 31 30 30 29 29 29 30 30 31 31 31 31 31 32 34 35 36 38 39 40 40 41 42 43 43 44 45 46 47 48 49 50 51 52 53 54 54 55 55 55 55 54 54 53 52 52 52 52 52 52 52 52 52 52 52 51 50 50 49 49 48 48 48 47 47 47 48 48 48 48 48 48 49 49 50 51 52 53
36 32 29 27 28 29 29 29 28 28 27 28 28 28 29 30 30 29 29 29 29 30 32 33 34 36 37 38 38 39 40 41 41 42 43 44 45 46 47 48 49 49 50 50 51 51 51 51 50 50 49 49 49 49 49 49 49 50 50 49 49 49 49 48 48 48 48 48 48 48 48 48 48 48 48 49 49 49 50 50 51 52 53 54 54
34 28 26 26 27 27 27 26 26 26 26 27 27 27 27 28 28 27 27 27 27 27 28 30 31 32 33 34 35 36 37 38 39 39 40 41 42 44 45 46 46 47 48 48 48 48 48 48 47 47 47 47 47 47 47 47 47 47 47 47 47 47 47 47 47 47 48 48 48 47 48 48 48 49 50 50 51 51 52 53 54 55 55 56 56
27 24 24 25 25 25 24 25 24 25 25 26 26 26 26 26 27 26 26 26 25 26 26 27 28 29 30 31 32 33 34 35 36 37 38 39 40 41 43 44 45 46 46 46 47 47 47 46 45 45 45 45 45 45 45 45 45 45 45 45 46 46 47 47 47 47 47 47 48 48 48 49 50 50 51 52 53 54 55 55 56 57 57 57 57
22 22 24 24 23 22 22 22 23 23 23 23 24 24 25 25 25 25 25 24 24 24 24 24 25 26 27 28 29 30 32 33 34 35 36 37 38 39 41 42 43 44 45 45 46 46 45 44 44 44 44 44 44 44 44 44 44 44 44 45 46 47 48 48 48 48 48 48 48 49 50 50 51 52 53 54 55 56 57 57 58 58 58 58 58
21 23 24 23 21 21 21 21 21 21 21 21 22 22 23 23 23 23 23 23 23 22 23 23 24 25 25 26 27 29 30 31 33 34 36 37 38 39 40 41 42 42 43 44 45 45 45 44 44 44 44 44 44 44 43 43 43 43 44 45 47 48 48 49 48 48 48 49 49 50 51 52 53 54 55 56 57 58 58 58 58 58 58 58 59
22 24 23 22 20 20 20 20 20 20 20 20 20 20 21 21 21 22 22 22 22 22 22 23 23 24 25 26 27 28 29 30 31 33 34 36 37 38 39 40 41 41 42 43 44 44 44 44 44 44 44 44 44 44 43 43 43 43 44 46 47 48 49 49 49 49 50 51 51 52 53 54 54 55 56 57 58 58 58 58 58 58 59 59 60
24 24 23 22 21 20 19 19 18 19 19 20 20 20 20 21 20 20 21 21 21 21 21 21 22 23 24 25 26 27 28 30 31 32 33 34 35 36 37 38 39 40 40 41 42 43 43 44 44 44 44 44 44 44 44 44 44 45 45 46 47 48 49 50 50 51 52 52 53 53 54 55 56 57 58 58 58 58 58 58 58 59 59 60 60
25 24 23 22 21 21 20 19 18 19 20 20 20 19 20 19 19 18 19 19 19 20 20 20 20 21 22 23 24 25 27 28 30 31 32 34 34 35 36 36 37 38 39 40 40 41 42 43 43 44 44 45 45 45 45 46 46 46 47 47 48 49 50 51 51 52 52 53 53 54 55 56 57 57 58 58 58 58 58 58 59 59 59 60 61
26 24 23 22 22 22 22 21 21 21 21 21 20 20 20 20 20 20 20 20 20 20 20 20 21 22 22 23 24 25 26 27 28 29 31 32 33 34 35 36 36 37 38 39 40 40 41 42 43 43 44 45 46 46 47 47 48 48 48 48 49 50 50 51 52 52 53 53 54 55 56 57 57 57 57 58 58 58 58 58 58 59 60 62 64
27 25 23 23 23 23 23 23 23 24 24 23 23 23 23 23 22 22 22 22 21 21 21 21 21 22 22 23 23 25 26 27 28 29 30 31 31 32 33 34 36 37 38 39 39 40 41 42 43 44 45 46 47 48 48 49 49 49 49 49 50 50 51 51 52 52 53 54 55 56 56 57 57 57 57 57 57 57 57 57 58 60 63 65 67
26 25 24 23 24 25 25 25 25 27 28 28 27 27 27 27 26 26 25 24 23 23 23 22 22 22 22 23 23 24 26 27 27 28 29 29 30 30 31 32 33 34 36 37 38 39 40 42 43 44 45 46 47 48 48 49 49 49 49 50 50 50 51 51 52 53 53 54 55 56 57 57 56 56 55 55 55 56 58 60 62 64 67 68 70
26 25 24 23 24 26 27 27 28 29 30 31 31 30 30 30 29 28 27 26 25 25 25 24 24 25 24 25 25 26 27 27 28 28 28 28 28 28 28 29 29 31 32 33 34 36 37 39 41 42 44 45 46 46 47 47 48 48 48 49 49 50 50 51 52 53 54 54 54 54 54 54 54 54 54 56 57 59 62 64 66 68 71 72 74
Wind_Direction
234 228 228 229 234 240 240 234 231 232 232 230 229 226 222 219 216 215 218 218 213 211 212 213 215 217 218 218 216 214 213 213 214 217 222 229 236 237 228 219 216 216 216 220 223 222 221 220 218 208 192 181 175 172 171 164 145 142 147 151 141 18 11 14 16 360 348 350 327 317 324 330 331 330 326 324 323 323 324 324 323 322 321 320 316
233 225 224 227 232 238 240 234 227 226 227 227 226 222 221 222 220 222 224 220 217 216 215 215 217 219 220 220 220 220 221 221 224 227 231 235 239 241 236 225 219 219 220 222 225 227 228 228 228 227 222 216 212 206 202 203 206 211 239 270 282 294 301 300 299 301 302 305 305 305 308 310 310 309 311 312 312 313 315 314 311 310 310 308 304
231 224 222 225 230 235 241 237 229 226 226 224 222 220 221 221 221 224 224 220 220 219 216 218 220 220 222 222 223 225 225 227 231 234 236 239 240 242 240 233 225 221 221 223 225 228 230 231 231 231 232 232 232 232 228 227 232 243 263 280 284 285 287 285 283 285 288 292 297 299 300 303 303 300 300 301 300 303 306 303 300 299 298 296 294
228 225 223 226 229 231 237 240 235 232 230 226 223 223 223 219 218 224 224 220 220 220 218 220 220 221 225 224 224 226 227 229 233 235 239 241 242 243 241 237 231 226 225 226 228 230 231 232 232 233 234 236 237 240 241 239 240 248 261 274 280 282 283 284 284 284 285 287 290 290 290 292 294 292 290 288 291 297 300 299 298 297 294 291 288
230 228 227 227 227 227 232 238 237 235 235 232 227 226 226 220 218 223 224 220 220 220 219 219 219 221 224 225 226 227 228 230 233 235 239 241 243 244 242 239 235 231 230 231 232 234 234 234 234 234 236 237 238 240 242 243 245 250 258 269 275 278 279 281 282 283 283 284 284 285 285 286 287 286 282 283 289 294 296 297 296 295 294 291 288
232 231 230 227 224 223 227 234 238 237 237 236 231 228 227 224 222 226 224 221 222 223 221 220 221 222 223 224 227 229 230 232 234 236 238 240 242 243 242 240 237 234 233 233 233 235 236 237 235 234 234 235 237 239 242 244 246 251 258 265 270 274 276 278 279 280 280 280 282 283 285 287 287 284 282 283 287 290 291 292 291 291 291 289 288
233 232 232 228 223 221 223 231 239 240 237 236 233 229 228 227 227 229 226 223 225 226 225 224 224 225 225 227 230 233 233 234 235 237 239 239 240 241 240 240 238 236 234 234 235 235 235 237 235 233 232 233 235 238 241 244 247 251 256 261 266 270 272 274 276 276 278 280 283 284 285 286 286 285 284 283 285 287 288 288 288 289 289 288 287
234 232 232 229 224 221 219 223 233 237 236 235 234 231 229 229 229 230 228 226 227 227 227 227 227 226 226 229 234 237 236 235 236 238 238 239 238 237 238 238 237 237 236 235 235 234 234 235 235 233 233 233 236 239 243 246 249 252 255 260 264 268 271 273 273 274 277 278 280 283 284 284 285 284 283 284 286 286 286 286 286 286 287 286 285
235 232 231 230 225 221 219 218 224 230 232 233 233 232 230 230 231 231 229 228 229 228 228 229 230 228 226 227 232 236 236 236 236 236 237 236 236 235 235 236 236 237 236 235 234 234 234 234 234 235 235 236 239 242 246 249 251 254 258 261 265 268 271 272 273 275 276 277 279 280 280 282 282 280 282 288 288 285 284 285 284 284 284 285 284
235 232 230 229 226 222 219 218 218 222 226 229 232 233 233 233 234 233 231 231 231 230 230 232 233 231 228 229 231 233 235 236 235 237 238 236 236 236 235 235 236 236 236 235 233 233 234 234 236 237 239 241 243 246 249 251 253 257 259 262 265 267 271 273 274 276 278 279 281 279 278 280 280 279 281 286 286 284 282 281 282 284 284 284 284
234 232 229 229 228 224 221 219 218 218 220 224 227 231 234 236 236 235 234 233 232 230 230 234 236 234 231 231 232 232 233 235 235 237 239 237 236 237 237 237 238 238 238 237 236 235 236 238 239 241 243 245 246 248 251 253 255 258 260 262 265 267 270 273 276 277 278 279 279 278 278 279 279 279 279 277 278 280 279 278 281 284 285 285 285
233 233 230 228 228 227 223 220 220 219 219 221 223 227 232 235 236 235 234 234 234 231 229 231 235 234 232 232 233 233 233 233 234 236 238 237 236 237 238 238 239 240 241 241 241 241 242 243 244 245 246 248 250 252 253 255 258 261 263 265 268 270 272 274 275 276 276 276 276 275 275 275 275 275 274 272 272 274 275 277 281 284 286 286 285
236 234 232 229 228 228 225 222 221 222 220 221 223 225 228 231 233 234 234 234 233 231 230 231 233 234 233 231 232 234 234 232 233 236 238 237 237 238 239 240 240 241 242 242 244 245 245 246 248 249 250 252 253 254 255 257 260 263 266 268 270 271 272 272 271 271 272 273 273 273 272 272 272 272 271 270 270 269 272 278 281 282 284 286 285
239 236 234 232 229 228 227 224 223 224 223 223 224 225 226 227 229 231 232 233 233 232 231 232 233 233 233 232 232 235 236 234 234 236 238 238 237 237 239 242 243 243 244 244 244 245 246 248 250 252 253 254 255 256 258 260 261 263 266 268 269 269 269 268 269 269 269 270 271 271 271 272 272 272 272 272 271 270 273 278 280 281 282 283 284
240 238 237 235 232 230 228 226 224 224 225 226 226 226 226 226 226 228 230 231 232 232 232 233 234 235 235 234 234 235 237 238 238 238 239 241 240 238 240 243 244 244 245 245 245 246 248 249 251 253 254 256 257 259 260 261 262 264 265 266 266 266 266 266 267 268 268 269 270 272 273 273 273 274 274 273 272 273 275 277 278 280 281 282 283
239 240 239 238 236 232 230 228 226 225 225 227 228 228 227 227 226 227 229 230 231 231 232 232 234 235 235 235 236 235 236 238 239 239 240 243 244 243 242 244 245 245 246 246 247 248 249 250 252 253 255 257 258 260 260 261 261 262 262 263 262 263 264 264 266 268 269 271 272 275 276 277 277 277 275 273 273 275 277 278 279 280 280 281 282
240 240 240 239 238 235 233 230 229 227 226 226 228 230 229 229 228 227 228 230 231 231 231 232 232 233 234 236 237 237 236 237 239 240 241 243 246 246 245 246 247 248 248 248 249 250 251 252 253 254 255 256 257 258 258 259 259 258 259 260 261 263 265 265 266 268 270 271 271 273 276 278 278 278 276 276 276 276 277 279 280 280 280 280 280
242 241 241 240 239 237 235 233 231 229 228 227 228 230 231 231 230 229 229 229 231 232 232 232 232 232 233 235 237 238 239 239 240 241 243 244 246 247 247 248 249 249 250 250 251 251 251 252 255 256 256 256 256 257 256 256 256 257 259 260 262 265 267 268 269 271 272 272 271 271 272 274 276 278 278 277 277 277 277 278 278 278 278 278 279
242 242 242 242 241 240 238 236 234 232 231 229 229 230 231 232 232 232 231 230 230 232 233 233 232 231 232 234 235 237 239 241 241 242 243 245 247 247 248 249 249 249 249 250 251 251 249 250 254 256 256 255 255 256 255 254 254 256 260 262 265 269 271 272 273 275 275 275 275 275 273 272 274 277 278 278 278 278 279 278 277 276 277 277 277
242 243 243 243 242 242 241 239 238 236 234 233 232 231 232 233 233 233 233 232 231 231 232 232 232 232 233 233 234 235 237 240 241 241 242 244 245 246 245 246 247 247 248 249 250 250 248 249 251 253 254 255 255 255 254 253 254 257 261 264 267 269 270 270 272 273 272 273 276 278 277 275 274 275 276 277 278 279 280 279 276 276 277 277 276
242 242 243 243 243 243 242 242 241 239 238 237 236 234 234 234 234 234 234 234 233 233 232 232 233 233 234 234 235 235 237 239 240 240 241 241 242 242 242 244 245 246 246 247 247 246 245 247 249 251 253 255 255 255 254 254 255 258 261 263 266 268 268 268 269 269 269 270 273 276 277 276 276 275 274 275 277 279 280 279 276 275 276 277 277
244 243 243 243 243 243 243 243 243 242 240 239 238 238 237 236 236 236 235 235 235 234 234 234 234 234 234 235 236 236 237 238 239 240 241 241 242 241 242 243 245 246 247 248 247 245 244 244 247 250 252 255 256 256 255 255 257 259 260 263 267 269 268 269 269 269 270 272 273 274 275 275 276 276 276 276 277 278 278 277 275 274 275 277 280
248 246 244 244 244 244 244 244 244 243 243 242 241 240 240 239 238 238 237 237 236 236 235 235 235 235 235 236 236 237 237 238 239 239 240 242 243 243 243 244 246 248 249 251 251 252 252 252 252 253 254 257 259 260 259 259 260 262 263 266 269 271 271 272 272 272 273 275 276 276 276 276 276 277 277 278 278 278 277 276 275 276 277 279 281
252 249 248 246 245 245 245 245 244 244 244 244 243 243 242 242 241 241 240 239 239 238 237 237 236 237 237 237 237 238 238 239 240 240 240 242 243 244 245 246 247 249 251 252 254 255 256 258 259 260 260 261 262 263 263 263 263 265 266 268 270 271 272 273 274 274 275 275 277 277 278 278 278 278 278 278 279 279 278 278 278 278 279 280 281
254 252 251 249 248 246 246 246 246 245 245 245 245 245 244 244 243 243 242 242 241 240 240 239 238 238 238 238 239 240 240 241 242 242 242 243 244 246 247 248 249 250 252 253 255 256 257 258 260 262 263 264 264 265 265 266 266 267 267 268 268 269 271 272 274 275 275 275 276 276 277 278 278 279 279 279 280 280 280 280 280 280 280 281 281
257 256 254 252 250 249 247 247 247 247 246 246 245 245 245 245 245 245 244 244 244 243 242 242 241 240 239 239 240 241 242 243 244 245 245 246 246 247 248 249 251 252 253 254 255 257 258 259 260 261 262 264 265 265 266 267 267 268 268 268 268 269 269 270 272 274 275 276 276 277 277 278 278 279 280 280 281 281 281 281 281 281 281 282 281
261 259 257 256 254 251 250 248 247 247 248 248 247 246 246 246 246 246 246 246 246 245 245 244 243 242 242 241 241 242 243 244 245 246 247 248 248 249 250 251 252 253 254 255 256 257 259 260 261 262 263 264 265 266 266 267 268 269 269 270 270 270 270 271 272 273 275 276 277 277 278 279 279 280 280 281 281 281 282 282 282 282 282 282 282
266 263 261 259 257 255 253 250 249 248 247 248 248 248 248 247 247 246 247 247 247 247 247 246 245 245 244 244 243 243 244 245 246 247 249 249 250 251 252 253 254 255 256 257 258 259 260 261 262 263 264 265 266 267 268 268 269 270 271 271 271 272 272 273 274 274 275 276 277 278 278 279 279 280 280 280 281 281 281 282 282 282 282 282 282
272 269 266 263 260 258 256 253 251 249 248 247 248 248 249 249 249 248 247 247 247 247 248 248 248 247 247 246 246 245 245 246 247 249 250 251 252 253 254 255 256 257 258 259 260 261 262 263 264 265 266 267 268 269 269 270 271 271 272 272 273 274 274 275 275 276 276 277 277 278 278 279 279 280 280 280 280 280 280 280 280 280 281 281 281
277 274 271 269 266 262 259 256 254 252 250 248 248 248 248 249 250 250 249 249 248 248 248 248 249 249 249 249 249 248 248 248 249 249 251 252 253 254 256 257 258 259 260 261 262 262 263 264 265 266 267 268 269 270 270 271 272 272 273 273 274 275 275 276 276 277 277 278 278 278 279 279 280 280 280 280 280 280 280 280 280 280 280 280 280
284 279 276 274 272 269 265 261 257 255 253 251 249 248 248 248 249 250 250 250 250 250 249 249 249 249 250 250 250 251 251 251 251 251 252 253 254 255 256 257 259 260 260 261 262 263 264 265 265 266 267 268 269 270 270 271 272 273 273 274 275 275 275 276 276 277 277 278 278 278 279 279 279 280 280 280 280 280 281 281 280 280 280 280 281
288 284 280 280 279 276 273 268 263 258 256 254 252 250 248 248 249 250 250 251 251 251 251 251 251 251 250 251 251 251 252 252 253 253 254 255 255 256 257 258 259 260 261 262 263 263 264 265 266 267 267 268 269 270 270 271 272 273 273 274 274 274 275 275 276 276 277 277 278 278 278 279 279 279 279 280 280 280 280 281 281 281 281 281 281
291 287 283 283 284 283 280 275 270 265 261 257 255 253 250 249 248 249 250 251 251 252 252 253 253 253 253 252 252 252 252 253 253 254 255 255 256 257 258 259 259 260 261 262 263 264 264 265 266 267 267 268 269 269 270 271 271 272 272 272 273 274 274 275 275 276 276 277 277 278 278 279 279 279 280 280 280 281 281 281 281 281 281 281 281
292 288 285 285 285 286 283 280 276 272 267 263 259 256 253 250 249 248 249 250 252 252 253 253 254 254 255 255 254 254 254 254 254 254 255 255 256 257 257 258 259 260 261 261 262 263 264 264 265 265 266 267 268 269 269 270 270 271 271 272 273 274 274 275 276 276 277 278 278 279 279 280 280 281 281 281 282 282 282 282 282 283 283 283 283
292 288 286 285 285 285 283 281 278 276 272 268 263 259 255 252 250 249 248 249 251 252 253 254 254 255 255 256 256 256 256 256 256 256 256 256 256 256 257 258 258 259 260 261 261 262 263 263 264 265 266 267 267 268 269 270 270 271 272 273 274 274 275 276 277 277 278 279 280 281 281 282 282 282 283 283 283 284 284 284 284 284 284 284 284
292 289 287 285 284 283 281 278 277 275 272 269 265 261 257 254 251 250 249 249 250 251 252 253 254 254 255 256 256 256 257 257 257 257 257 257 257 257 258 258 259 259 260 261 261 262 263 263 264 265 266 267 268 269 269 270 271 272 272 273 274 275 276 277 278 279 279 280 281 281 281 282 282 283 283 284 284 284 284 285 285 285 286 287 287
292 290 287 284 281 279 277 275 274 272 270 268 265 261 259 256 254 252 251 250 250 251 252 253 253 254 254 255 255 256 256 257 257 257 257 257 257 258 258 259 259 260 261 261 262 262 263 264 265 266 267 268 268 269 270 270 271 272 273 274 275 276 277 278 278 279 280 280 280 281 281 282 283 284 284 285 285 286 287 288 288 289 290 290 291
292 290 285 281 278 275 273 272 271 269 267 265 264 262 261 259 257 255 253 253 253 253 253 253 254 254 255 255 256 256 257 257 257 257 257 257 257 258 259 259 260 261 261 262 263 263 264 265 266 266 267 268 268 269 270 271 272 273 274 275 276 277 277 278 278 279 279 280 280 281 282 283 283 284 285 286 287 288 289 290 290 291 291 291 291
291 288 282 277 273 271 270 270 269 267 265 264 263 263 262 261 260 258 256 255 254 255 255 255 256 256 256 257 257 257 257 257 257 257 257 257 258 258 259 260 261 261 262 263 264 264 265 266 266 267 268 268 268 269 270 271 272 273 274 275 276 276 277 277 277 278 278 279 279 280 281 282 283 284 285 286 287 289 290 290 291 291 292 292 292
289 284 276 271 269 268 268 268 267 266 265 264 263 263 263 262 262 260 259 257 255 255 256 256 257 257 258 258 258 258 258 258 258 258 258 259 259 259 260 261 262 263 263 264 265 265 266 266 267 267 268 268 269 270 271 271 272 273 274 274 275 275 276 276 276 277 278 279 279 280 281 283 284 285 286 288 289 290 291 292 292 292 292 293 293
284 275 267 266 266 266 265 266 266 266 265 264 263 263 262 262 262 261 260 258 257 256 256 257 258 259 259 259 259 259 259 260 260 260 260 260 261 261 261 262 262 263 264 264 264 265 265 266 266 266 267 268 268 269 270 271 272 273 273 274 275 275 276 276 277 278 278 279 280 282 283 284 285 287 288 289 290 291 292 292 293 293 294 294 294
273 264 263 264 263 262 264 265 265 265 265 263 262 261 261 261 261 260 259 258 257 256 257 258 259 261 261 261 262 262 261 262 262 262 263 264 264 264 264 264 264 264 263 263 263 264 264 265 265 266 266 267 268 269 270 271 272 273 274 274 275 275 275 276 276 277 278 279 280 282 283 285 286 287 288 290 290 291 292 293 294 295 295 296 296
260 258 261 261 260 261 263 265 265 265 264 263 261 260 259 260 261 261 261 260 259 258 259 260 261 262 263 264 265 265 264 264 264 265 265 266 266 266 266 265 265 264 264 263 263 263 264 264 264 265 266 267 268 269 270 271 272 273 274 274 274 274 274 275 275 276 278 279 281 282 283 285 286 287 289 290 291 293 294 295 296 296 296 296 296
259 259 258 257 259 261 262 263 265 265 265 263 262 261 261 262 262 263 263 262 260 259 259 260 261 262 263 263 264 264 265 265 265 265 265 265 265 265 265 265 265 265 265 264 264 264 264 264 264 264 265 266 267 268 269 270 272 273 274 274 274 274 274 275 276 277 279 280 281 283 284 285 287 289 290 291 293 294 295 296 296 296 296 296 296
266 262 259 258 261 262 261 262 264 265 266 266 265 264 263 262 263 264 264 264 263 262 262 262 264 264 264 265 265 265 265 265 265 265 265 264 264 265 265 265 265 266 265 265 266 265 265 265 265 265 265 266 267 268 269 270 272 273 274 275 275 276 276 277 278 279 280 281 282 284 285 287 289 290 291 293 294 295 295 296 296 296 296 296 296
267 263 261 261 262 262 261 261 263 265 266 266 265 264 264 263 264 266 267 268 268 268 268 269 270 270 271 271 271 270 269 268 267 266 266 266 266 266 266 266 266 265 266 266 266 266 267 267 266 267 267 267 267 268 269 270 272 274 275 277 277 278 278 279 279 280 281 282 284 285 287 288 290 291 292 293 294 295 295 296 296 296 296 295 295
264 260 259 260 262 261 261 261 264 266 266 264 262 261 262 261 261 262 264 265 266 267 269 270 271 272 274 274 275 275 275 275 274 272 271 270 269 268 267 267 267 267 267 267 267 267 267 268 268 268 268 268 269 269 270 271 273 275 276 277 278 278 279 279 280 281 282 284 285 287 288 289 291 292 293 293 294 294 295 295 295 295 295 295 295
260 257 256 259 261 261 260 259 262 266 267 263 258 256 257 257 258 259 261 263 266 268 269 271 272 273 275 276 277 278 278 278 277 277 276 274 273 271 269 269 268 268 268 268 269 269 269 269 269 269 269 270 270 270 271 273 274 275 276 277 277 278 279 279 280 282 283 285 286 288 289 290 291 292 293 293 293 294 294 294 295 295 295 296 297
257 254 256 260 262 263 261 258 259 263 265 263 259 257 258 261 264 266 267 268 269 271 273 275 276 278 280 282 283 283 282 281 280 279 278 277 276 275 274 272 271 270 269 269 269 269 270 270 270 270 271 271 271 272 273 273 274 275 275 276 277 278 279 280 282 283 285 286 288 289 290 290 291 292 292 293 293 294 294 295 296 296 297 298 299
255 253 255 260 263 264 262 260 260 261 263 263 262 261 263 266 269 272 273 273 274 276 277 279 281 284 287 289 290 290 288 286 285 283 282 280 279 278 277 277 276 274 273 273 272 272 272 272 272 272 273 273 273 273 274 274 275 275 276 277 278 279 280 282 284 285 286 287 288 289 289 290 291 291 292 293 294 295 296 296 297 298 298 299 299
253 251 254 261 266 265 262 261 261 261 261 262 263 264 266 269 271 273 275 277 279 280 281 283 286 289 290 292 292 292 291 289 287 286 286 285 284 283 282 281 281 281 280 279 278 278 277 276 276 275 275 275 275 275 275 276 276 277 278 279 280 281 283 284 285 286 287 288 289 289 290 291 292 293 294 294 295 296 297 298 299 299 299 299 300
Height
10960 10961 10960 10960 10960 10960 10961 10962 10963 10964 10965 10966 10966 10967 10969 10970 10971 10972 10973 10974 10975 10977 10979 10981 10982 10983 10984 10985 10986 10987 10987 10988 10988 10989 10989 10990 10991 10991 10992 10993 10994 10995 10996 10996 10997 10998 10998 10998 10999 10999 10999 10998 10998 10998 10998 10998 10998 10998 10997 10997 10996 10996 10995 10995 10995 10994 10994 10993 10992 10991 10991 10992 10993 10994 10994 10994 10995 10995 10995 10995 10994 10994 10994 10994 10994
10953 10954 10954 10955 10956 10957 10958 10959 10960 10962 10963 10963 10964 10966 10967 10968 10969 10970 10971 10972 10973 10974 10976 10978 10980 10981 10982 10983 10984 10985 10985 10986 10986 10987 10988 10988 10989 10990 10991 10992 10993 10994 10994 10995 10996 10996 10997 10997 10997 10998 10998 10998 10998 10998 10998 10998 10997 10997 10997 10996 10996 10996 10996 10996 10995 10995 10994 10993 10993 10992 10991 10991 10993 10994 10994 10994 10994 10994 10994 10994 10993 10993 10992 10992 10992
10947 10948 10950 10951 10952 10953 10954 10956 10957 10959 10959 10960 10962 10963 10965 10965 10966 10968 10969 10969 10970 10972 10973 10975 10976 10978 10979 10981 10982 10982 10983 10984 10984 10985 10985 10986 10987 10988 10989 10990 10991 10992 10993 10993 10994 10995 10995 10996 10996 10996 10996 10996 10996 10996 10997 10997 10996 10996 10996 10996 10995 10995 10996 10996 10995 10995 10994 10993 10993 10992 10991 10991 10991 10992 10993 10993 10993 10993 10993 10992 10991 10991 10991 10990 10990
10943 10944 10946 10947 10948 10950 10951 10952 10955 10956 10956 10958 10959 10960 10962 10962 10963 10965 10966 10967 10968 10969 10970 10972 10973 10974 10976 10978 10979 10979 10980 10981 10982 10982 10983 10984 10985 10986 10987 10988 10989 10990 10990 10991 10992 10993 10994 10994 10994 10995 10995 10995 10995 10995 10995 10995 10995 10995 10995 10995 10994 10994 10994 10994 10994 10994 10993 10993 10993 10992 10991 10990 10990 10990 10990 10991 10991 10991 10991 10989 10988 10988 10988 10988 10987
10939 10940 10941 10943 10945 10947 10948 10949 10952 10953 10954 10955 10956 10958 10959 10960 10960 10962 10963 10964 10965 10966 10967 10968 10969 10970 10972 10974 10975 10976 10978 10979 10979 10980 10980 10981 10982 10983 10984 10985 10986 10987 10988 10989 10990 10991 10992 10992 10993 10993 10993 10993 10993 10993 10993 10993 10993 10993 10993 10993 10993 10992 10992 10992 10992 10992 10992 10992 10992 10991 10990 10989 10989 10988 10988 10988 10988 10988 10988 10987 10985 10985 10984 10984 10984
10934 10935 10937 10939 10941 10943 10944 10946 10948 10949 10950 10952 10953 10955 10957 10957 10958 10958 10959 10961 10962 10962 10964 10965 10966 10967 10968 10970 10972 10973 10975 10976 10977 10978 10978 10979 10979 10980 10981 10982 10983 10984 10985 10986 10987 10988 10989 10990 10990 10991 10991 10991 10991 10991 10991 10991 10991 10991 10991 10991 10990 10990 10990 10990 10990 10990 10990 10990 10989 10989 10988 10987 10987 10986 10986 10985 10985 10985 10985 10984 10983 10982 10981 10981 10981
10929 10930 10932 10935 10937 10939 10940 10941 10943 10945 10946 10947 10949 10951 10952 10953 10955 10956 10957 10958 10958 10959 10961 10962 10963 10965 10966 10969 10971 10972 10972 10973 10974 10975 10975 10976 10976 10977 10978 10979 10979 10980 10981 10982 10984 10985 10986 10987 10988 10988 10988 10989 10988 10988 10988 10988 10988 10989 10989 10988 10988 10988 10988 10988 10987 10987 10987 10987 10986 10986 10985 10985 10984 10984 10983 10982 10982 10982 10982 10981 10980 10979 10979 10978 10978
10923 10925 10927 10930 10932 10934 10936 10937 10939 10941 10942 10943 10945 10947 10948 10950 10951 10952 10954 10954 10955 10956 10958 10960 10961 10962 10964 10967 10969 10970 10970 10969 10970 10971 10972 10973 10973 10974 10975 10975 10976 10977 10978 10979 10981 10982 10983 10984 10984 10985 10985 10986 10986 10985 10985 10985 10985 10986 10986 10986 10985 10985 10985 10985 10984 10984 10983 10983 10983 10983 10983 10982 10982 10982 10981 10980 10979 10979 10979 10978 10978 10977 10976 10975 10975
10917 10920 10921 10924 10927 10929 10931 10932 10934 10936 10938 10939 10941 10943 10944 10946 10948 10949 10950 10951 10952 10953 10955 10957 10958 10959 10961 10963 10964 10965 10965 10965 10964 10965 10967 10968 10970 10971 10972 10972 10973 10974 10975 10976 10977 10978 10980 10981 10981 10982 10982 10982 10982 10982 10982 10982 10982 10982 10982 10983 10982 10982 10982 10981 10981 10981 10980 10980 10980 10979 10980 10979 10978 10979 10981 10980 10978 10976 10975 10975 10974 10974 10973 10972 10971
10911 10914 10916 10918 10921 10923 10925 10927 10929 10931 10933 10934 10936 10938 10940 10942 10943 10945 10946 10947 10948 10950 10952 10954 10954 10956 10958 10958 10959 10960 10960 10959 10960 10962 10963 10965 10967 10968 10969 10970 10971 10972 10973 10974 10974 10975 10977 10977 10978 10978 10979 10979 10979 10979 10979 10979 10979 10979 10979 10979 10979 10979 10979 10978 10978 10978 10977 10977 10976 10975 10975 10975 10975 10976 10978 10980 10978 10974 10972 10971 10970 10970 10970 10969 10967
10905 10907 10909 10912 10914 10917 10920 10921 10923 10925 10927 10929 10931 10933 10935 10937 10939 10940 10941 10942 10944 10946 10949 10950 10951 10952 10953 10953 10954 10954 10954 10955 10958 10960 10961 10962 10964 10965 10966 10968 10969 10969 10970 10971 10972 10973 10973 10974 10974 10974 10975 10975 10975 10976 10976 10976 10975 10975 10975 10975 10975 10976 10976 10975 10975 10974 10974 10973 10973 10971 10971 10971 10972 10972 10974 10975 10974 10970 10968 10968 10967 10966 10965 10965 10963
10899 10901 10903 10905 10908 10911 10913 10915 10917 10919 10921 10923 10925 10927 10929 10931 10933 10934 10936 10937 10939 10942 10944 10946 10947 10948 10948 10949 10948 10948 10949 10952 10954 10955 10956 10958 10959 10960 10962 10964 10965 10966 10967 10968 10970 10970 10970 10970 10970 10970 10971 10971 10972 10972 10972 10972 10972 10972 10971 10972 10972 10972 10973 10972 10972 10970 10969 10969 10968 10968 10967 10967 10968 10968 10969 10969 10967 10965 10963 10963 10963 10962 10961 10960 10959
10893 10894 10896 10898 10901 10903 10906 10909 10910 10912 10915 10917 10919 10921 10923 10925 10927 10928 10930 10932 10934 10937 10939 10941 10942 10942 10943 10944 10943 10942 10946 10949 10950 10951 10952 10953 10954 10956 10958 10959 10960 10961 10963 10965 10965 10965 10965 10965 10966 10966 10967 10968 10968 10968 10968 10969 10969 10968 10967 10967 10968 10968 10968 10967 10967 10966 10965 10965 10964 10963 10963 10963 10963 10963 10964 10964 10962 10961 10959 10959 10958 10958 10957 10956 10955
10887 10888 10890 10892 10894 10897 10899 10902 10904 10906 10908 10910 10913 10915 10917 10918 10920 10922 10924 10926 10928 10931 10933 10935 10936 10937 10938 10939 10938 10939 10942 10945 10946 10946 10946 10948 10950 10952 10954 10955 10956 10957 10958 10959 10959 10959 10960 10960 10961 10962 10962 10962 10962 10963 10964 10965 10964 10963 10963 10962 10963 10962 10962 10961 10961 10962 10962 10961 10960 10960 10960 10960 10959 10959 10960 10960 10958 10957 10956 10954 10953 10953 10952 10952 10951
10881 10882 10884 10886 10888 10891 10892 10895 10897 10899 10901 10903 10906 10908 10910 10912 10914 10916 10918 10920 10922 10925 10927 10929 10930 10932 10933 10934 10935 10936 10938 10939 10939 10941 10942 10943 10945 10947 10949 10950 10951 10951 10952 10953 10953 10954 10955 10956 10956 10957 10957 10958 10958 10960 10961 10960 10960 10959 10958 10957 10957 10956 10955 10955 10956 10957 10956 10955 10955 10955 10956 10956 10956 10956 10956 10955 10954 10952 10951 10950 10948 10948 10947 10947 10946
10874 10876 10878 10880 10882 10884 10886 10888 10890 10892 10894 10896 10898 10901 10903 10905 10907 10909 10911 10913 10915 10918 10920 10923 10924 10926 10927 10928 10929 10931 10932 10932 10933 10935 10937 10938 10940 10942 10944 10944 10945 10946 10947 10947 10948 10949 10950 10951 10952 10952 10953 10954 10955 10955 10956 10955 10954 10953 10951 10950 10950 10949 10949 10950 10952 10952 10951 10950 10950 10950 10950 10951 10953 10952 10949 10948 10949 10948 10947 10945 10944 10942 10942 10941 10940
10867 10869 10871 10873 10875 10877 10879 10881 10883 10885 10887 10889 10891 10894 10896 10898 10900 10903 10905 10907 10909 10911 10913 10916 10918 10919 10921 10921 10923 10925 10926 10927 10928 10930 10932 10933 10935 10936 10938 10938 10939 10940 10941 10942 10943 10944 10945 10946 10947 10948 10948 10949 10950 10950 10950 10949 10948 10947 10945 10943 10944 10944 10943 10945 10947 10947 10946 10946 10946 10945 10945 10946 10948 10947 10943 10941 10943 10944 10943 10941 10939 10937 10936 10935 10935
10860 10862 10864 10866 10868 10870 10872 10874 10876 10878 10880 10882 10884 10886 10889 10891 10894 10896 10898 10900 10902 10904 10906 10908 10911 10913 10914 10914 10916 10919 10920 10921 10923 10925 10926 10928 10929 10930 10931 10932 10933 10935 10936 10937 10938 10939 10940 10941 10942 10943 10943 10943 10944 10944 10945 10944 10942 10941 10939 10939 10939 10938 10938 10940 10941 10941 10941 10941 10940 10939 10940 10941 10942 10941 10938 10935 10936 10937 10938 10938 10934 10931 10931 10930 10929
10853 10855 10856 10858 10861 10863 10865 10867 10869 10871 10873 10875 10877 10879 10881 10884 10886 10889 10891 10893 10895 10897 10899 10901 10904 10906 10907 10908 10910 10912 10913 10914 10917 10919 10920 10922 10924 10925 10926 10927 10927 10929 10930 10931 10932 10933 10934 10936 10937 10936 10935 10937 10938 10938 10939 10938 10937 10935 10934 10933 10934 10933 10933 10933 10935 10935 10935 10934 10933 10934 10935 10936 10935 10934 10932 10930 10930 10930 10931 10931 10929 10926 10925 10924 10922
10845 10847 10849 10850 10853 10855 10857 10859 10861 10864 10866 10868 10870 10872 10874 10876 10879 10881 10884 10886 10888 10891 10893 10895 10897 10899 10900 10901 10904 10906 10906 10908 10910 10913 10915 10916 10918 10919 10921 10922 10922 10923 10924 10925 10926 10927 10929 10931 10930 10929 10929 10930 10932 10932 10933 10933 10932 10930 10928 10928 10928 10928 10927 10927 10927 10927 10927 10926 10927 10928 10929 10929 10928 10928 10926 10925 10925 10924 10923 10923 10921 10919 10917 10916 10916
10837 10839 10841 10843 10845 10847 10849 10851 10853 10856 10858 10860 10862 10864 10866 10869 10871 10873 10876 10879 10881 10883 10886 10889 10891 10893 10894 10895 10897 10899 10900 10901 10903 10906 10908 10909 10911 10913 10915 10916 10916 10917 10917 10919 10920 10921 10922 10923 10923 10922 10923 10925 10925 10925 10926 10927 10926 10924 10923 10923 10922 10922 10922 10921 10921 10921 10922 10921 10921 10921 10920 10920 10920 10921 10920 10919 10919 10918 10916 10915 10914 10912 10910 10909 10908
10830 10831 10833 10834 10836 10838 10841 10843 10845 10847 10850 10852 10854 10856 10859 10861 10863 10865 10868 10871 10873 10876 10879 10882 10884 10886 10888 10889 10891 10893 10894 10895 10897 10899 10900 10902 10904 10906 10908 10909 10910 10910 10910 10911 10912 10913 10914 10915 10915 10916 10917 10917 10918 10919 10920 10920 10919 10917 10918 10918 10917 10916 10915 10914 10913 10916 10917 10916 10914 10913 10912 10912 10913 10913 10913 10912 10912 10911 10909 10908 10907 10906 10904 10902 10902
10823 10824 10826 10827 10828 10830 10832 10834 10836 10839 10841 10843 10846 10848 10851 10853 10855 10858 10860 10863 10865 10868 10871 10874 10876 10879 10881 10883 10884 10885 10887 10888 10890 10891 10893 10895 10897 10899 10901 10902 10903 10903 10903 10904 10905 10906 10907 10907 10908 10909 10910 10910 10911 10911 10912 10913 10912 10911 10911 10912 10910 10910 10908 10906 10905 10909 10911 10908 10906 10905 10905 10905 10905 10905 10905 10904 10905 10904 10901 10900 10901 10899 10896 10895 10894
10816 10817 10818 10820 10821 10822 10824 10825 10827 10830 10832 10835 10837 10840 10843 10845 10847 10850 10852 10855 10857 10860 10863 10866 10869 10871 10874 10876 10878 10878 10880 10881 10882 10884 10886 10888 10890 10892 10894 10895 10895 10896 10896 10897 10898 10899 10899 10900 10900 10901 10902 10902 10903 10904 10905 10905 10905 10905 10905 10905 10903 10902 10901 10899 10898 10900 10902 10901 10898 10897 10896 10896 10896 10895 10895 10895 10895 10894 10892 10892 10893 10891 10889 10888 10886
10809 10810 10811 10812 10814 10815 10816 10817 10818 10821 10823 10826 10828 10831 10833 10836 10838 10841 10844 10846 10849 10852 10855 10858 10860 10863 10866 10868 10870 10871 10873 10874 10875 10877 10880 10882 10884 10885 10886 10887 10888 10889 10890 10890 10891 10892 10892 10893 10893 10893 10894 10894 10895 10896 10897 10897 10898 10897 10897 10897 10896 10895 10894 10892 10890 10890 10891 10892 10891 10889 10888 10887 10886 10885 10885 10885 10884 10882 10881 10881 10881 10881 10880 10879 10877
10804 10804 10804 10805 10806 10807 10808 10809 10811 10812 10814 10817 10819 10822 10824 10826 10829 10831 10834 10837 10840 10843 10846 10849 10852 10854 10857 10860 10862 10864 10865 10867 10868 10870 10872 10874 10876 10878 10879 10880 10881 10882 10883 10883 10884 10884 10885 10885 10885 10885 10886 10886 10887 10888 10888 10889 10889 10889 10889 10889 10888 10888 10886 10885 10883 10882 10881 10881 10881 10880 10879 10878 10877 10876 10875 10874 10872 10871 10870 10870 10869 10869 10868 10868 10865
10798 10798 10799 10799 10799 10799 10800 10802 10803 10805 10806 10807 10809 10812 10815 10817 10820 10822 10825 10828 10831 10834 10837 10840 10843 10845 10848 10851 10854 10856 10857 10859 10861 10862 10864 10866 10868 10870 10871 10872 10873 10874 10875 10875 10876 10877 10877 10877 10877 10877 10877 10878 10879 10879 10880 10880 10880 10880 10880 10879 10879 10878 10877 10877 10876 10875 10873 10872 10871 10870 10868 10867 10867 10866 10864 10863 10861 10860 10858 10858 10857 10856 10855 10855 10852
10792 10792 10793 10792 10792 10792 10793 10794 10795 10797 10798 10799 10800 10802 10805 10807 10810 10813 10816 10818 10821 10824 10827 10829 10832 10836 10839 10842 10845 10847 10849 10851 10853 10854 10856 10857 10859 10861 10862 10864 10865 10866 10867 10867 10868 10868 10869 10869 10869 10869 10869 10870 10870 10870 10871 10871 10870 10870 10870 10869 10868 10868 10868 10867 10866 10865 10864 10863 10861 10860 10858 10857 10856 10855 10854 10852 10850 10849 10848 10846 10845 10844 10842 10841 10839
10787 10787 10786 10786 10786 10785 10786 10786 10787 10788 10790 10791 10792 10794 10796 10798 10800 10803 10806 10809 10812 10814 10817 10819 10822 10826 10829 10832 10835 10838 10841 10842 10844 10846 10847 10848 10850 10852 10854 10855 10856 10857 10858 10859 10859 10859 10860 10860 10860 10860 10861 10861 10861 10861 10861 10861 10861 10860 10859 10859 10858 10858 10857 10857 10856 10855 10854 10852 10851 10849 10848 10847 10845 10843 10842 10841 10839 10837 10836 10835 10834 10832 10829 10828 10826
10781 10781 10780 10780 10779 10779 10779 10779 10780 10780 10782 10783 10785 10786 10788 10789 10791 10793 10796 10799 10802 10805 10808 10810 10813 10816 10819 10822 10825 10828 10831 10833 10835 10837 10839 10840 10841 10843 10844 10845 10846 10848 10849 10849 10850 10850 10851 10851 10851 10851 10852 10852 10852 10852 10851 10851 10850 10850 10849 10849 10848 10848 10847 10846 10845 10844 10842 10841 10840 10838 10836 10835 10833 10832 10830 10828 10826 10824 10823 10823 10822 10820 10817 10815 10813
10776 10775 10774 10773 10773 10772 10772 10772 10773 10773 10774 10775 10776 10778 10780 10782 10783 10785 10787 10790 10793 10795 10798 10801 10804 10807 10810 10813 10815 10818 10820 10823 10826 10828 10829 10831 10832 10833 10834 10836 10837 10838 10839 10840 10840 10841 10841 10841 10842 10842 10842 10842 10842 10841 10841 10841 10840 10840 10839 10839 10838 10837 10836 10835 10834 10833 10831 10830 10828 10827 10825 10824 10822 10820 10819 10817 10815 10813 10811 10810 10810 10808 10806 10804 10802
10770 10769 10768 10768 10767 10766 10766 10766 10766 10767 10767 10768 10769 10770 10772 10773 10775 10777 10779 10781 10784 10787 10789 10792 10795 10798 10801 10804 10806 10808 10811 10813 10815 10818 10819 10821 10822 10823 10824 10826 10827 10828 10829 10829 10830 10831 10831 10831 10832 10832 10832 10831 10831 10831 10831 10831 10830 10830 10829 10828 10827 10826 10825 10824 10823 10822 10820 10819 10817 10816 10815 10813 10811 10810 10808 10807 10805 10803 10801 10799 10797 10796 10794 10792 10790
10765 10764 10763 10762 10761 10760 10760 10760 10760 10760 10760 10761 10762 10762 10764 10765 10767 10769 10771 10773 10776 10779 10781 10783 10786 10789 10791 10794 10797 10799 10801 10804 10806 10808 10809 10811 10812 10813 10814 10815 10817 10817 10818 10818 10819 10820 10821 10821 10821 10821 10821 10821 10821 10821 10821 10821 10820 10819 10819 10818 10817 10816 10814 10813 10812 10811 10810 10808 10807 10806 10804 10803 10802 10800 10798 10797 10795 10793 10791 10789 10787 10785 10783 10781 10779
10760 10759 10758 10757 10756 10755 10754 10754 10754 10754 10755 10755 10756 10756 10757 10758 10760 10762 10764 10766 10769 10771 10774 10776 10778 10780 10783 10785 10787 10790 10792 10794 10796 10798 10799 10801 10802 10803 10804 10805 10806 10807 10808 10808 10809 10810 10810 10811 10811 10811 10811 10811 10811 10811 10811 10811 10810 10809 10809 10808 10807 10806 10805 10803 10802 10801 10800 10798 10797 10796 10794 10793 10792 10790 10788 10787 10785 10783 10781 10779 10777 10775 10773 10771 10768
10755 10754 10753 10752 10751 10750 10750 10749 10749 10750 10750 10750 10751 10751 10752 10753 10754 10755 10758 10760 10762 10765 10767 10769 10771 10773 10775 10777 10779 10781 10783 10784 10786 10788 10789 10791 10792 10793 10794 10795 10796 10797 10798 10799 10800 10800 10801 10801 10801 10801 10802 10802 10802 10802 10802 10801 10800 10800 10799 10799 10798 10797 10795 10794 10793 10792 10791 10789 10788 10787 10785 10784 10782 10781 10779 10778 10776 10774 10772 10770 10768 10766 10764 10761 10759
10750 10749 10748 10747 10746 10746 10745 10745 10745 10746 10746 10746 10747 10747 10747 10748 10749 10750 10752 10754 10756 10759 10761 10763 10765 10767 10769 10770 10772 10773 10775 10776 10777 10779 10780 10781 10783 10784 10785 10786 10787 10788 10789 10790 10791 10791 10791 10792 10792 10792 10793 10793 10793 10793 10793 10792 10792 10791 10791 10790 10789 10788 10787 10786 10785 10784 10782 10781 10780 10779 10777 10776 10774 10773 10771 10769 10768 10766 10764 10762 10760 10758 10755 10753 10751
10745 10744 10743 10742 10741 10741 10741 10741 10742 10742 10742 10743 10743 10743 10744 10744 10745 10746 10747 10749 10751 10753 10755 10757 10759 10760 10762 10763 10765 10766 10767 10768 10770 10771 10772 10773 10774 10775 10776 10777 10778 10780 10781 10781 10782 10783 10783 10784 10784 10785 10785 10785 10785 10785 10785 10784 10784 10783 10782 10782 10781 10780 10779 10778 10777 10776 10775 10774 10773 10771 10770 10769 10767 10766 10764 10762 10760 10758 10756 10754 10752 10750 10748 10746 10744
10741 10739 10738 10737 10737 10737 10737 10738 10738 10739 10739 10740 10740 10740 10741 10741 10742 10743 10744 10745 10746 10748 10749 10751 10753 10754 10756 10757 10758 10759 10761 10761 10763 10764 10765 10766 10767 10768 10769 10770 10771 10772 10773 10773 10774 10775 10776 10776 10777 10777 10778 10778 10778 10777 10777 10777 10776 10776 10775 10774 10774 10773 10772 10771 10770 10769 10768 10767 10766 10765 10763 10762 10760 10759 10757 10755 10753 10751 10749 10748 10746 10743 10741 10739 10737
10737 10735 10734 10733 10733 10733 10734 10734 10735 10735 10736 10737 10737 10737 10737 10738 10738 10739 10740 10741 10742 10743 10744 10746 10747 10749 10750 10751 10752 10753 10754 10755 10756 10757 10758 10759 10761 10761 10762 10763 10764 10765 10766 10767 10767 10768 10769 10769 10770 10771 10771 10771 10771 10770 10770 10770 10769 10769 10768 10768 10767 10766 10765 10765 10764 10763 10762 10761 10759 10758 10757 10755 10754 10752 10750 10748 10747 10745 10743 10741 10739 10736 10734 10732 10729
10732 10731 10730 10730 10730 10730 10730 10731 10731 10732 10733 10733 10734 10734 10734 10735 10735 10735 10736 10737 10738 10739 10740 10741 10742 10743 10744 10746 10747 10748 10749 10750 10751 10752 10753 10754 10755 10756 10756 10757 10758 10759 10760 10761 10761 10762 10762 10763 10763 10764 10764 10764 10764 10764 10763 10763 10763 10762 10761 10761 10760 10760 10759 10758 10757 10756 10755 10754 10753 10751 10750 10748 10746 10745 10743 10741 10740 10738 10736 10734 10731 10729 10727 10725 10722
10727 10727 10726 10727 10727 10727 10727 10728 10728 10729 10729 10730 10731 10731 10731 10732 10732 10732 10733 10733 10734 10735 10736 10737 10738 10739 10739 10740 10742 10743 10743 10744 10745 10746 10747 10748 10749 10750 10751 10751 10752 10753 10754 10754 10755 10755 10756 10756 10757 10757 10757 10757 10757 10757 10757 10756 10756 10755 10755 10754 10754 10753 10752 10751 10750 10749 10748 10747 10746 10744 10743 10741 10739 10738 10736 10734 10732 10730 10728 10726 10724 10722 10720 10717 10715
10723 10723 10723 10724 10724 10724 10725 10725 10725 10726 10726 10727 10728 10728 10728 10728 10729 10729 10729 10730 10730 10731 10732 10733 10733 10734 10735 10736 10737 10738 10738 10739 10740 10741 10742 10743 10744 10744 10745 10746 10746 10747 10748 10748 10748 10749 10749 10750 10750 10750 10750 10750 10750 10750 10750 10750 10749 10749 10748 10748 10747 10747 10746 10745 10744 10743 10742 10741 10739 10738 10736 10734 10733 10731 10729 10727 10725 10723 10721 10719 10717 10714 10712 10710 10707
10720 10720 10721 10721 10721 10722 10722 10722 10723 10723 10723 10724 10725 10725 10725 10725 10725 10726 10726 10727 10727 10727 10728 10728 10729 10730 10731 10732 10733 10733 10734 10735 10735 10736 10737 10738 10738 10739 10740 10740 10741 10741 10742 10742 10742 10743 10743 10743 10744 10744 10744 10744 10744 10744 10743 10743 10743 10743 10742 10742 10741 10740 10740 10739 10738 10737 10736 10734 10733 10731 10729 10728 10726 10724 10722 10719 10717 10715 10713 10710 10708 10706 10704 10701 10699
10718 10718 10718 10718 10719 10719 10720 10720 10720 10720 10720 10721 10721 10722 10722 10722 10723 10723 10723 10724 10724 10724 10724 10725 10725 10726 10727 10727 10728 10729 10729 10730 10731 10731 10732 10732 10733 10734 10734 10735 10735 10736 10736 10736 10736 10737 10737 10737 10737 10737 10737 10737 10737 10737 10737 10737 10736 10736 10735 10735 10734 10734 10733 10732 10731 10730 10729 10727 10726 10724 10722 10721 10719 10716 10714 10712 10709 10707 10705 10703 10700 10698 10695 10692 10690
10715 10715 10715 10716 10716 10717 10717 10717 10718 10718 10718 10718 10718 10719 10719 10720 10720 10720 10721 10721 10721 10721 10721 10722 10722 10723 10723 10724 10724 10725 10725 10725 10726 10726 10726 10727 10727 10728 10728 10729 10729 10730 10730 10730 10731 10731 10731 10731 10731 10731 10731 10731 10731 10730 10730 10730 10729 10729 10728 10728 10727 10726 10726 10725 10724 10723 10721 10720 10718 10716 10715 10713 10711 10708 10706 10704 10701 10699 10697 10695 10692 10690 10687 10683 10681
10712 10712 10712 10713 10713 10714 10714 10715 10715 10715 10715 10715 10716 10716 10717 10717 10718 10718 10718 10718 10718 10718 10719 10719 10719 10720 10720 10720 10721 10721 10721 10721 10721 10722 10722 10722 10722 10722 10723 10723 10723 10724 10724 10724 10724 10724 10725 10724 10724 10724 10724 10724 10724 10723 10723 10723 10722 10722 10721 10720 10720 10719 10718 10717 10716 10715 10713 10712 10710 10708 10706 10704 10702 10700 10698 10696 10694 10691 10689 10687 10684 10681 10678 10675 10672
10709 10710 10710 10710 10711 10711 10712 10712 10713 10713 10713 10713 10714 10714 10715 10715 10716 10716 10716 10716 10716 10716 10716 10716 10717 10717 10717 10717 10717 10717 10717 10717 10717 10717 10717 10717 10717 10717 10717 10717 10717 10717 10718 10718 10718 10718 10718 10718 10718 10718 10718 10717 10717 10716 10716 10715 10715 10714 10714 10713 10712 10711 10710 10709 10708 10706 10705 10703 10702 10700 10698 10696 10694 10692 10690 10687 10685 10683 10681 10678 10676 10673 10670 10667 10664
10707 10707 10707 10707 10708 10708 10709 10710 10710 10710 10710 10711 10711 10712 10712 10713 10713 10714 10714 10714 10714 10714 10714 10714 10714 10713 10714 10714 10714 10714 10714 10714 10713 10713 10713 10712 10712 10712 10712 10712 10712 10711 10712 10712 10712 10712 10712 10712 10711 10711 10711 10710 10710 10709 10708 10708 10707 10707 10706 10706 10705 10704 10703 10701 10700 10699 10697 10696 10694 10692 10690 10688 10686 10684 10682 10679 10677 10675 10672 10670 10668 10665 10661 10658 10656
10704 10704 10705 10705 10705 10705 10706 10707 10707 10707 10708 10708 10709 10709 10710 10710 10711 10711 10711 10711 10711 10711 10711 10710 10710 10710 10710 10710 10710 10710 10710 10710 10709 10709 10708 10708 10707 10707 10707 10707 10706 10706 10706 10706 10706 10706 10705 10705 10705 10704 10704 10703 10702 10702 10701 10701 10700 10700 10699 10698 10697 10696 10695 10694 10693 10691 10690 10688 10686 10684 10682 10680 10678 10676 10674 10671 10669 10666 10664 10662 10659 10656 10652 10649 10646
10702 10702 10702 10702 10702 10702 10703 10703 10704 10704 10705 10705 10706 10706 10707 10707 10707 10708 10708 10708 10708 10708 10707 10707 10707 10706 10706 10706 10706 10706 10706 10706 10705 10705 10704 10703 10703 10703 10702 10701 10701 10700 10700 10700 10700 10700 10699 10699 10698 10698 10697 10696 10695 10695 10694 10694 10693 10692 10692 10691 10690 10689 10688 10687 10685 10684 10682 10680 10678 10676 10674 10672 10670 10668 10666 10663 10661 10658 10655 10653 10650 10647 10642 10639 10636
10698 10698 10698 10698 10698 10699 10699 10700 10700 10701 10701 10702 10702 10703 10703 10704 10704 10704 10704 10704 10705 10704 10704 10703 10703 10702 10702 10702 10702 10702 10702 10701 10701 10701 10700 10699 10698 10698 10697 10696 10695 10695 10695 10694 10694 10694 10693 10693 10692 10691 10690 10689 10688 10688 10687 10687 10686 10685 10684 10684 10683 10682 10681 10679 10678 10676 10675 10673 10671 10668 10666 10664 10661 10659 10657 10655 10652 10649 10646 10643 10640 10637 10632 10628 10625